time, Switch, Flow(0), Analog(2)
yyyy/mm/dd HH:MM:SS.fff, True=FILTERED|False=TOTAL, L/min, V
2023/07/01 10:00:03.386, True, 3.972, 0.131762
2023/07/01 10:00:03.890, True, 3.655, 0.128176
2023/07/01 10:00:04.386, True, 2.357, 0.130083
2023/07/01 10:00:04.890, True, 1.656, 0.129702
2023/07/01 10:00:05.385, True, 1.011, 0.130770
2023/07/01 10:00:05.889, True, 0.996, 0.130922
2023/07/01 10:00:06.394, True, 0.993, 0.128405
2023/07/01 10:00:06.898, True, 1.328, 0.129015
2023/07/01 10:00:07.394, True, 1.012, 0.128710
2023/07/01 10:00:07.898, True, 0.994, 0.128481
2023/07/01 10:00:08.402, True, 0.994, 0.132143
2023/07/01 10:00:08.897, True, 1.010, 0.129397
2023/07/01 10:00:09.402, True, 1.327, 0.129625
2023/07/01 10:00:09.906, True, 0.996, 0.129244
2023/07/01 10:00:10.402, True, 1.009, 0.128939
2023/07/01 10:00:10.906, True, 0.995, 0.129931
2023/07/01 10:00:11.410, True, 0.996, 0.130465
2023/07/01 10:00:11.906, True, 1.345, 0.129931
2023/07/01 10:00:12.410, True, 0.996, 0.129244
2023/07/01 10:00:12.914, True, 0.994, 0.128786
2023/07/01 10:00:13.410, True, 1.011, 0.130465
2023/07/01 10:00:13.914, True, 0.994, 0.129625
2023/07/01 10:00:14.410, True, 1.011, 0.128099
2023/07/01 10:00:14.914, True, 0.995, 0.129397
2023/07/01 10:00:15.418, True, 0.994, 0.128710
2023/07/01 10:00:15.914, True, 1.011, 0.131380
2023/07/01 10:00:16.418, True, 0.995, 0.129168
2023/07/01 10:00:16.922, True, 1.326, 0.129931
2023/07/01 10:00:17.426, True, 0.995, 0.129625
2023/07/01 10:00:17.922, True, 1.011, 0.129778
2023/07/01 10:00:18.426, True, 0.995, 0.129625
2023/07/01 10:00:18.930, True, 0.995, 0.126879
2023/07/01 10:00:19.426, True, 1.010, 0.128252
2023/07/01 10:00:19.930, True, 0.996, 0.130312
2023/07/01 10:00:20.426, True, 1.010, 0.128710
2023/07/01 10:00:20.929, True, 0.995, 0.130770
2023/07/01 10:00:21.434, True, 0.995, 0.130694
2023/07/01 10:00:21.930, True, 1.348, 0.130617
2023/07/01 10:00:22.434, True, 0.995, 0.130846
2023/07/01 10:00:22.938, True, 0.996, 0.128481
2023/07/01 10:00:23.434, True, 1.009, 0.128405
2023/07/01 10:00:23.938, True, 0.995, 0.129702
2023/07/01 10:00:24.442, True, 0.995, 0.131151
2023/07/01 10:00:24.938, True, 1.011, 0.129931
2023/07/01 10:00:25.442, True, 0.995, 0.128328
2023/07/01 10:00:25.946, True, 0.995, 0.126650
2023/07/01 10:00:26.450, True, 0.995, 0.130465
2023/07/01 10:00:26.946, True, 1.011, 0.129931
2023/07/01 10:00:27.450, True, 0.995, 0.128099
2023/07/01 10:00:27.954, True, 0.994, 0.128710
2023/07/01 10:00:28.458, True, 0.995, 0.127718
2023/07/01 10:00:28.954, True, 1.011, 0.130007
2023/07/01 10:00:29.458, True, 0.995, 0.130312
2023/07/01 10:00:29.954, True, 1.012, 0.127642
2023/07/01 10:00:30.458, True, 0.993, 0.131075
2023/07/01 10:00:30.962, True, 0.995, 0.131228
2023/07/01 10:00:31.466, True, 0.995, 0.129549
2023/07/01 10:00:31.962, True, 1.011, 0.130236
2023/07/01 10:00:32.466, True, 1.326, 0.129244
2023/07/01 10:00:32.970, True, 0.663, 0.128786
2023/07/01 10:00:33.465, True, 1.348, 0.131075
2023/07/01 10:00:33.970, True, 0.995, 0.129931
2023/07/01 10:00:34.466, True, 0.674, 0.129778
2023/07/01 10:00:34.970, True, 0.995, 0.131075
2023/07/01 10:00:35.474, True, 0.995, 0.130312
2023/07/01 10:00:35.970, True, 1.011, 0.129015
2023/07/01 10:00:36.473, True, 0.995, 0.128099
2023/07/01 10:00:36.978, True, 0.995, 0.128939
2023/07/01 10:00:37.474, True, 1.348, 0.131075
2023/07/01 10:00:37.978, True, 0.995, 0.130770
2023/07/01 10:00:38.474, True, 1.011, 0.129549
2023/07/01 10:00:38.978, True, 0.995, 0.131914
2023/07/01 10:00:39.482, True, 0.995, 0.130159
2023/07/01 10:00:39.986, True, 0.995, 0.127871
2023/07/01 10:00:40.482, True, 1.011, 0.130388
2023/07/01 10:00:40.986, True, 0.995, 0.129702
2023/07/01 10:00:41.490, True, 0.995, 0.128939
2023/07/01 10:00:41.986, True, 1.011, 0.129320
2023/07/01 10:00:42.490, True, 0.995, 0.128557
2023/07/01 10:00:42.994, True, 0.995, 0.130388
2023/07/01 10:00:43.490, True, 1.011, 0.129702
2023/07/01 10:00:43.994, True, 1.326, 0.129549
2023/07/01 10:00:44.498, True, 0.995, 0.128405
2023/07/01 10:00:44.994, True, 1.011, 0.128786
2023/07/01 10:00:45.498, True, 0.995, 0.126421
2023/07/01 10:00:46.001, True, 0.995, 0.130465
2023/07/01 10:00:46.498, True, 1.348, 0.130617
2023/07/01 10:00:47.002, True, 0.995, 0.129168
2023/07/01 10:00:47.506, True, 0.995, 0.129702
2023/07/01 10:00:48.002, True, 1.348, 0.129091
2023/07/01 10:00:48.506, True, 0.995, 0.129397
2023/07/01 10:00:49.010, True, 0.995, 0.128405
2023/07/01 10:00:49.506, True, 1.011, 0.131228
2023/07/01 10:00:50.010, True, 0.995, 0.130159
2023/07/01 10:00:50.514, True, 0.995, 0.128252
2023/07/01 10:00:51.010, True, 1.348, 0.130465
2023/07/01 10:00:51.514, True, 0.995, 0.130159
2023/07/01 10:00:52.018, True, 0.995, 0.130007
2023/07/01 10:00:52.514, True, 1.011, 0.129397
2023/07/01 10:00:53.018, True, 0.995, 0.128176
2023/07/01 10:00:53.522, True, 1.326, 0.130846
2023/07/01 10:00:54.018, True, 1.011, 0.129625
2023/07/01 10:00:54.522, True, 0.995, 0.131685
2023/07/01 10:00:55.026, True, 0.995, 0.129091
2023/07/01 10:00:55.530, True, 0.996, 0.133822
2023/07/01 10:00:56.026, True, 1.010, 0.131151
2023/07/01 10:00:56.530, True, 1.326, 0.129549
2023/07/01 10:00:57.034, True, 0.995, 0.130159
2023/07/01 10:00:57.530, True, 1.011, 0.129854
2023/07/01 10:00:58.034, True, 0.995, 0.131914
2023/07/01 10:00:58.538, True, 0.995, 0.131304
2023/07/01 10:00:59.034, True, 1.011, 0.131228
2023/07/01 10:00:59.538, True, 0.994, 0.129244
2023/07/01 10:01:00.034, True, 1.011, 0.131533
2023/07/01 10:01:00.537, True, 1.326, 0.131609
2023/07/01 10:01:01.042, True, 0.995, 0.132219
2023/07/01 10:01:01.538, True, 1.012, 0.133059
2023/07/01 10:01:02.042, True, 0.994, 0.132677
2023/07/01 10:01:02.545, True, 0.995, 0.131685
2023/07/01 10:01:03.042, True, 1.348, 0.132372
2023/07/01 10:01:03.546, True, 0.995, 0.133745
2023/07/01 10:01:04.050, True, 0.995, 0.130694
2023/07/01 10:01:04.554, True, 0.995, 0.133364
2023/07/01 10:01:05.050, True, 1.011, 0.131609
2023/07/01 10:01:05.554, True, 0.995, 0.132830
2023/07/01 10:01:06.058, True, 0.995, 0.132525
2023/07/01 10:01:06.553, True, 1.011, 0.134051
2023/07/01 10:01:07.058, True, 0.995, 0.132906
2023/07/01 10:01:07.562, True, 0.995, 0.131456
2023/07/01 10:01:08.058, True, 1.011, 0.132601
2023/07/01 10:01:08.562, True, 0.995, 0.132372
2023/07/01 10:01:09.066, True, 0.995, 0.134508
2023/07/01 10:01:09.562, True, 1.348, 0.133593
2023/07/01 10:01:10.066, True, 0.995, 0.132982
2023/07/01 10:01:10.570, True, 0.997, 0.132830
2023/07/01 10:01:11.066, True, 1.009, 0.131456
2023/07/01 10:01:11.570, True, 0.995, 0.133364
2023/07/01 10:01:12.074, True, 0.995, 0.134585
2023/07/01 10:01:12.570, True, 1.011, 0.136187
2023/07/01 10:01:13.074, True, 0.995, 0.136034
2023/07/01 10:01:13.570, True, 1.348, 0.134585
2023/07/01 10:01:14.074, True, 0.995, 0.135271
2023/07/01 10:01:14.578, True, 0.994, 0.133364
2023/07/01 10:01:15.074, True, 1.011, 0.137331
2023/07/01 10:01:15.578, True, 0.995, 0.134508
2023/07/01 10:01:16.082, True, 0.996, 0.136339
2023/07/01 10:01:16.578, True, 1.010, 0.135195
2023/07/01 10:01:17.082, True, 0.995, 0.136721
2023/07/01 10:01:17.586, True, 0.995, 0.135042
2023/07/01 10:01:18.082, True, 1.011, 0.135119
2023/07/01 10:01:18.585, True, 0.996, 0.136645
2023/07/01 10:01:19.089, True, 0.994, 0.135119
2023/07/01 10:01:19.586, True, 1.012, 0.136187
2023/07/01 10:01:20.090, True, 0.994, 0.135348
2023/07/01 10:01:20.594, True, 0.995, 0.136492
2023/07/01 10:01:21.090, True, 1.347, 0.136187
2023/07/01 10:01:21.594, True, 0.995, 0.137713
2023/07/01 10:01:22.098, True, 0.997, 0.138399
2023/07/01 10:01:22.594, True, 1.009, 0.135348
2023/07/01 10:01:23.098, True, 0.995, 0.137026
2023/07/01 10:01:23.602, True, 1.328, 0.137713
2023/07/01 10:01:24.098, True, 1.011, 0.135500
2023/07/01 10:01:24.602, True, 0.994, 0.136263
2023/07/01 10:01:25.106, True, 0.995, 0.137026
2023/07/01 10:01:25.610, True, 0.996, 0.136187
2023/07/01 10:01:26.106, True, 1.010, 0.137484
2023/07/01 10:01:26.610, True, 0.995, 0.137789
2023/07/01 10:01:27.106, True, 1.011, 0.137255
2023/07/01 10:01:27.610, True, 1.327, 0.138476
2023/07/01 10:01:28.114, True, 0.995, 0.136797
2023/07/01 10:01:28.610, True, 1.012, 0.136645
2023/07/01 10:01:29.113, True, 0.993, 0.136187
2023/07/01 10:01:29.618, True, 0.995, 0.137636
2023/07/01 10:01:30.113, True, 1.011, 0.134813
2023/07/01 10:01:30.618, True, 1.329, 0.135653
2023/07/01 10:01:31.122, True, 0.995, 0.137560
2023/07/01 10:01:31.626, True, 0.993, 0.136721
2023/07/01 10:01:32.122, True, 1.011, 0.136339
2023/07/01 10:01:32.625, True, 0.995, 0.136110
2023/07/01 10:01:33.130, True, 0.996, 0.134813
2023/07/01 10:01:33.626, True, 1.010, 0.135424
2023/07/01 10:01:34.129, True, 0.995, 0.138857
2023/07/01 10:01:34.633, True, 0.995, 0.137331
2023/07/01 10:01:35.129, True, 1.011, 0.137026
2023/07/01 10:01:35.634, True, 0.995, 0.137407
2023/07/01 10:01:36.138, True, 0.996, 0.138094
2023/07/01 10:01:36.633, True, 1.011, 0.136797
2023/07/01 10:01:37.138, True, 0.994, 0.137789
2023/07/01 10:01:37.642, True, 0.995, 0.135805
2023/07/01 10:01:38.138, True, 1.011, 0.137102
2023/07/01 10:01:38.642, True, 1.326, 0.138857
2023/07/01 10:01:39.146, True, 0.664, 0.137102
2023/07/01 10:01:39.642, True, 1.347, 0.137560
2023/07/01 10:01:40.146, True, 0.995, 0.136950
2023/07/01 10:01:40.649, True, 0.995, 0.137789
2023/07/01 10:01:41.146, True, 1.012, 0.135271
2023/07/01 10:01:41.649, True, 0.993, 0.137942
2023/07/01 10:01:42.154, True, 0.996, 0.136034
2023/07/01 10:01:42.650, True, 1.011, 0.138323
2023/07/01 10:01:43.154, True, 0.995, 0.135576
2023/07/01 10:01:43.658, True, 0.994, 0.136873
2023/07/01 10:01:44.162, True, 0.995, 0.139086
2023/07/01 10:01:44.658, True, 1.010, 0.138170
2023/07/01 10:01:45.162, True, 0.995, 0.132525
2023/07/01 10:01:45.666, True, 0.995, 0.137179
2023/07/01 10:01:46.162, True, 1.347, 0.137484
2023/07/01 10:01:46.665, True, 0.995, 0.135500
2023/07/01 10:01:47.170, True, 0.996, 0.135576
2023/07/01 10:01:47.666, True, 1.010, 0.135576
2023/07/01 10:01:48.170, True, 0.995, 0.137713
2023/07/01 10:01:48.674, True, 0.996, 0.136492
2023/07/01 10:01:49.169, True, 1.010, 0.139086
2023/07/01 10:01:49.674, True, 0.995, 0.136568
2023/07/01 10:01:50.178, True, 0.995, 0.136263
2023/07/01 10:01:50.674, True, 1.348, 0.136950
2023/07/01 10:01:51.178, True, 0.995, 0.137789
2023/07/01 10:01:51.674, True, 1.013, 0.137026
2023/07/01 10:01:52.178, True, 0.993, 0.136568
2023/07/01 10:01:52.682, True, 1.327, 0.136187
2023/07/01 10:01:53.178, True, 1.012, 0.136110
2023/07/01 10:01:53.682, True, 0.993, 0.136263
2023/07/01 10:01:54.186, True, 0.997, 0.138247
2023/07/01 10:01:54.690, True, 0.993, 0.136950
2023/07/01 10:01:55.186, True, 1.350, 0.137484
2023/07/01 10:01:55.689, True, 0.994, 0.137255
2023/07/01 10:01:56.186, True, 1.010, 0.138857
2023/07/01 10:01:56.690, True, 0.995, 0.135653
2023/07/01 10:01:57.194, True, 0.995, 0.137102
2023/07/01 10:01:57.690, True, 1.011, 0.138018
2023/07/01 10:01:58.194, True, 1.326, 0.139544
2023/07/01 10:01:58.698, True, 0.995, 0.135882
2023/07/01 10:01:59.194, True, 1.010, 0.137179
2023/07/01 10:01:59.698, True, 0.995, 0.138094
2023/07/01 10:02:00.194, True, 1.011, 0.138628
2023/07/01 10:02:00.698, True, 0.995, 0.138628
2023/07/01 10:02:01.202, True, 1.326, 0.139239
2023/07/01 10:02:01.698, True, 1.011, 0.134890
2023/07/01 10:02:02.202, True, 0.995, 0.136873
2023/07/01 10:02:02.706, True, 0.995, 0.136339
2023/07/01 10:02:03.202, True, 1.011, 0.138323
2023/07/01 10:02:03.705, True, 0.995, 0.136110
2023/07/01 10:02:04.209, True, 0.995, 0.137179
2023/07/01 10:02:04.706, True, 1.011, 0.137560
2023/07/01 10:02:05.210, True, 1.327, 0.137331
2023/07/01 10:02:05.714, True, 0.995, 0.136568
2023/07/01 10:02:06.210, True, 1.011, 0.137255
2023/07/01 10:02:06.714, True, 0.995, 0.137636
2023/07/01 10:02:07.218, True, 0.995, 0.137255
2023/07/01 10:02:07.714, True, 1.348, 0.135882
2023/07/01 10:02:08.218, True, 0.995, 0.137865
2023/07/01 10:02:08.722, True, 0.995, 0.136645
2023/07/01 10:02:09.218, True, 1.013, 0.137636
2023/07/01 10:02:09.722, True, 0.993, 0.136950
2023/07/01 10:02:10.226, True, 0.995, 0.138323
2023/07/01 10:02:10.722, True, 1.011, 0.137789
2023/07/01 10:02:11.226, True, 0.995, 0.136797
2023/07/01 10:02:11.730, True, 1.326, 0.136645
2023/07/01 10:02:12.226, True, 1.011, 0.138247
2023/07/01 10:02:12.730, True, 0.995, 0.139696
2023/07/01 10:02:13.234, True, 0.995, 0.138399
2023/07/01 10:02:13.730, True, 1.011, 0.136339
2023/07/01 10:02:14.234, True, 0.996, 0.142824
2023/07/01 10:02:14.738, True, 0.994, 0.138476
2023/07/01 10:02:15.234, True, 1.011, 0.137407
2023/07/01 10:02:15.738, True, 0.995, 0.136721
2023/07/01 10:02:16.242, True, 1.326, 0.136187
2023/07/01 10:02:16.738, True, 1.011, 0.136416
2023/07/01 10:02:17.242, True, 0.995, 0.137179
2023/07/01 10:02:17.738, True, 1.011, 0.137789
2023/07/01 10:02:18.242, True, 0.995, 0.136034
2023/07/01 10:02:18.746, True, 0.995, 0.136797
2023/07/01 10:02:19.250, True, 0.995, 0.137713
2023/07/01 10:02:19.746, True, 1.011, 0.136568
2023/07/01 10:02:20.250, True, 0.995, 0.137484
2023/07/01 10:02:20.754, True, 0.995, 0.138018
2023/07/01 10:02:21.250, True, 1.012, 0.135729
2023/07/01 10:02:21.754, True, 0.993, 0.138933
2023/07/01 10:02:22.258, True, 0.995, 0.136034
2023/07/01 10:02:22.753, True, 1.011, 0.136492
2023/07/01 10:02:23.258, True, 0.995, 0.137407
2023/07/01 10:02:23.754, True, 1.011, 0.137713
2023/07/01 10:02:24.258, True, 0.995, 0.138399
2023/07/01 10:02:24.762, True, 0.995, 0.136263
2023/07/01 10:02:25.258, True, 1.011, 0.137789
2023/07/01 10:02:25.762, True, 0.995, 0.136416
2023/07/01 10:02:26.266, True, 0.995, 0.138094
2023/07/01 10:02:26.770, True, 1.327, 0.135958
2023/07/01 10:02:27.266, True, 1.010, 0.136568
2023/07/01 10:02:27.770, True, 0.995, 0.136187
2023/07/01 10:02:28.274, True, 0.995, 0.136645
2023/07/01 10:02:28.770, True, 1.011, 0.136416
2023/07/01 10:02:29.274, True, 0.995, 0.136263
2023/07/01 10:02:29.778, True, 0.995, 0.137255
2023/07/01 10:02:30.282, True, 0.995, 0.139010
2023/07/01 10:02:30.778, True, 1.011, 0.135500
2023/07/01 10:02:31.282, True, 0.995, 0.136950
2023/07/01 10:02:31.786, True, 0.995, 0.138094
2023/07/01 10:02:32.282, True, 1.011, 0.137407
2023/07/01 10:02:32.786, True, 0.995, 0.135958
2023/07/01 10:02:33.282, True, 1.011, 0.136645
2023/07/01 10:02:33.786, True, 0.995, 0.137560
2023/07/01 10:02:34.290, True, 0.995, 0.136416
2023/07/01 10:02:34.786, True, 1.011, 0.136034
2023/07/01 10:02:35.290, True, 1.326, 0.134203
2023/07/01 10:02:35.794, True, 0.995, 0.136416
2023/07/01 10:02:36.289, True, 1.011, 0.136187
2023/07/01 10:02:36.794, True, 0.995, 0.136873
2023/07/01 10:02:37.298, True, 0.995, 0.136950
2023/07/01 10:02:37.802, True, 1.326, 0.136110
2023/07/01 10:02:38.298, True, 1.011, 0.137026
2023/07/01 10:02:38.801, True, 0.995, 0.137026
2023/07/01 10:02:39.298, True, 1.011, 0.136034
2023/07/01 10:02:39.802, True, 0.995, 0.139620
2023/07/01 10:02:40.306, True, 1.326, 0.136873
2023/07/01 10:02:40.801, True, 1.011, 0.139391
2023/07/01 10:02:41.306, True, 0.995, 0.135958
2023/07/01 10:02:41.810, True, 0.995, 0.135042
2023/07/01 10:02:42.306, True, 1.011, 0.136263
2023/07/01 10:02:42.810, True, 0.995, 0.136721
2023/07/01 10:02:43.306, True, 1.011, 0.137026
2023/07/01 10:02:43.810, True, 0.995, 0.134737
2023/07/01 10:02:44.314, True, 0.994, 0.136568
2023/07/01 10:02:44.810, True, 1.348, 0.137102
2023/07/01 10:02:45.314, True, 0.663, 0.135119
2023/07/01 10:02:45.818, True, 1.326, 0.137865
2023/07/01 10:02:46.314, True, 1.011, 0.137484
2023/07/01 10:02:46.818, True, 0.995, 0.135805
2023/07/01 10:02:47.322, True, 0.995, 0.137942
2023/07/01 10:02:47.818, True, 1.011, 0.136339
2023/07/01 10:02:48.322, True, 1.326, 0.138018
2023/07/01 10:02:48.818, True, 1.011, 0.137407
2023/07/01 10:02:49.322, True, 0.995, 0.138094
2023/07/01 10:02:49.826, True, 0.663, 0.139620
2023/07/01 10:02:50.322, True, 1.011, 0.136645
2023/07/01 10:02:50.826, True, 0.995, 0.135576
2023/07/01 10:02:51.330, True, 1.328, 0.135729
2023/07/01 10:02:51.826, True, 1.009, 0.137789
2023/07/01 10:02:52.330, True, 0.995, 0.137026
2023/07/01 10:02:52.834, True, 0.995, 0.135882
2023/07/01 10:02:53.330, True, 1.011, 0.135805
2023/07/01 10:02:53.834, True, 0.995, 0.134279
2023/07/01 10:02:54.338, True, 0.995, 0.137484
2023/07/01 10:02:54.834, True, 1.011, 0.136339
2023/07/01 10:02:55.338, True, 0.995, 0.135576
2023/07/01 10:02:55.842, True, 0.995, 0.136034
2023/07/01 10:02:56.338, True, 1.011, 0.137407
2023/07/01 10:02:56.842, True, 0.995, 0.136645
2023/07/01 10:02:57.346, True, 0.995, 0.136416
2023/07/01 10:02:57.842, True, 1.011, 0.138705
2023/07/01 10:02:58.346, True, 1.326, 0.137713
2023/07/01 10:02:58.842, True, 1.011, 0.138018
2023/07/01 10:02:59.346, True, 0.995, 0.136492
2023/07/01 10:02:59.850, True, 0.995, 0.136645
2023/07/01 10:03:00.346, True, 1.011, 0.135500
2023/07/01 10:03:00.850, True, 0.995, 0.136263
2023/07/01 10:03:01.354, True, 0.995, 0.137484
2023/07/01 10:03:01.850, True, 1.011, 0.137484
2023/07/01 10:03:02.354, True, 0.995, 0.135348
2023/07/01 10:03:02.858, True, 0.995, 0.136645
2023/07/01 10:03:03.354, True, 1.011, 0.136034
2023/07/01 10:03:03.858, True, 0.995, 0.135424
2023/07/01 10:03:04.362, True, 0.995, 0.135653
2023/07/01 10:03:04.858, True, 1.011, 0.137179
2023/07/01 10:03:05.362, True, 0.995, 0.136645
2023/07/01 10:03:05.866, True, 0.995, 0.134966
2023/07/01 10:03:06.362, True, 1.011, 0.133669
2023/07/01 10:03:06.866, True, 0.995, 0.136187
2023/07/01 10:03:07.370, True, 0.995, 0.137026
2023/07/01 10:03:07.866, True, 1.010, 0.133822
2023/07/01 10:03:08.370, True, 0.995, 0.137102
2023/07/01 10:03:08.874, True, 0.995, 0.136034
2023/07/01 10:03:09.369, True, 1.011, 0.134890
2023/07/01 10:03:09.873, True, 0.995, 0.135119
2023/07/01 10:03:10.378, True, 1.328, 0.133059
2023/07/01 10:03:10.882, True, 0.663, 0.136645
2023/07/01 10:03:11.378, True, 1.346, 0.136187
2023/07/01 10:03:11.881, True, 0.996, 0.135576
2023/07/01 10:03:12.386, True, 0.995, 0.134966
2023/07/01 10:03:12.890, True, 0.993, 0.135729
2023/07/01 10:03:13.386, True, 1.012, 0.135729
2023/07/01 10:03:13.889, True, 0.995, 0.135119
2023/07/01 10:03:14.394, True, 0.994, 0.136950
2023/07/01 10:03:14.890, True, 1.011, 0.136416
2023/07/01 10:03:15.393, True, 0.997, 0.136187
2023/07/01 10:03:15.890, True, 1.011, 0.134890
2023/07/01 10:03:16.394, True, 1.324, 0.136873
2023/07/01 10:03:16.898, True, 0.996, 0.136492
2023/07/01 10:03:17.394, True, 1.010, 0.135805
2023/07/01 10:03:17.898, True, 0.996, 0.134890
2023/07/01 10:03:18.402, True, 0.994, 0.138781
2023/07/01 10:03:18.906, True, 0.995, 0.135424
2023/07/01 10:03:19.402, True, 1.348, 0.136873
2023/07/01 10:03:19.906, True, 0.994, 0.137026
2023/07/01 10:03:20.402, True, 1.011, 0.133516
2023/07/01 10:03:20.906, True, 0.995, 0.136950
2023/07/01 10:03:21.409, True, 0.996, 0.135805
2023/07/01 10:03:21.906, True, 1.010, 0.135424
2023/07/01 10:03:22.410, True, 1.326, 0.136797
2023/07/01 10:03:22.914, True, 0.995, 0.135729
2023/07/01 10:03:23.410, True, 1.010, 0.139162
2023/07/01 10:03:23.914, True, 0.995, 0.135424
2023/07/01 10:03:24.418, True, 0.995, 0.135958
2023/07/01 10:03:24.914, True, 1.011, 0.137179
2023/07/01 10:03:25.418, True, 0.995, 0.135576
2023/07/01 10:03:25.922, True, 0.995, 0.135500
2023/07/01 10:03:26.418, True, 1.011, 0.135958
2023/07/01 10:03:26.922, True, 0.995, 0.136339
2023/07/01 10:03:27.426, True, 0.995, 0.138018
2023/07/01 10:03:27.922, True, 1.011, 0.137026
2023/07/01 10:03:28.426, True, 0.996, 0.135042
2023/07/01 10:03:28.930, True, 0.994, 0.137102
2023/07/01 10:03:29.426, True, 1.011, 0.136797
2023/07/01 10:03:29.930, True, 0.995, 0.135424
2023/07/01 10:03:30.426, True, 1.011, 0.136797
2023/07/01 10:03:30.930, True, 0.995, 0.134508
2023/07/01 10:03:31.434, True, 0.995, 0.135576
2023/07/01 10:03:31.930, True, 1.011, 0.135882
2023/07/01 10:03:32.434, True, 0.995, 0.135576
2023/07/01 10:03:32.938, True, 0.995, 0.136263
2023/07/01 10:03:33.434, True, 1.011, 0.134432
2023/07/01 10:03:33.938, True, 1.326, 0.135424
2023/07/01 10:03:34.442, True, 0.995, 0.136873
2023/07/01 10:03:34.938, True, 1.013, 0.134813
2023/07/01 10:03:35.442, True, 0.993, 0.136187
2023/07/01 10:03:35.946, True, 0.995, 0.136721
2023/07/01 10:03:36.442, True, 1.011, 0.135576
2023/07/01 10:03:36.946, True, 0.995, 0.135729
2023/07/01 10:03:37.442, True, 1.348, 0.134966
2023/07/01 10:03:37.946, True, 0.663, 0.134585
2023/07/01 10:03:38.450, True, 0.995, 0.136492
2023/07/01 10:03:38.946, True, 1.011, 0.135729
2023/07/01 10:03:39.450, True, 0.995, 0.133669
2023/07/01 10:03:39.954, True, 0.995, 0.134279
2023/07/01 10:03:40.450, True, 1.348, 0.135195
2023/07/01 10:03:40.954, True, 0.995, 0.134508
2023/07/01 10:03:41.458, True, 0.995, 0.135271
2023/07/01 10:03:41.954, True, 1.011, 0.135424
2023/07/01 10:03:42.458, True, 0.995, 0.134966
2023/07/01 10:03:42.954, True, 1.011, 0.135348
2023/07/01 10:03:43.458, True, 1.326, 0.133974
2023/07/01 10:03:43.962, True, 0.995, 0.134279
2023/07/01 10:03:44.458, True, 1.011, 0.136034
2023/07/01 10:03:44.962, True, 0.995, 0.137179
2023/07/01 10:03:45.466, True, 0.995, 0.134890
2023/07/01 10:03:45.962, True, 1.011, 0.135424
2023/07/01 10:03:46.466, True, 0.995, 0.137942
2023/07/01 10:03:46.970, True, 0.995, 0.134890
2023/07/01 10:03:47.466, True, 1.011, 0.135119
2023/07/01 10:03:47.970, True, 0.995, 0.134890
2023/07/01 10:03:48.465, True, 1.011, 0.135958
2023/07/01 10:03:48.970, True, 0.995, 0.133364
2023/07/01 10:03:49.474, True, 0.995, 0.133669
2023/07/01 10:03:49.970, True, 1.011, 0.134356
2023/07/01 10:03:50.474, True, 0.995, 0.135119
2023/07/01 10:03:50.978, True, 0.995, 0.134890
2023/07/01 10:03:51.474, True, 1.011, 0.133669
2023/07/01 10:03:51.978, True, 0.995, 0.135958
2023/07/01 10:03:52.482, True, 0.995, 0.136110
2023/07/01 10:03:52.978, True, 1.011, 0.135271
2023/07/01 10:03:53.482, True, 0.996, 0.136492
2023/07/01 10:03:53.986, True, 0.994, 0.136568
2023/07/01 10:03:54.482, True, 1.011, 0.133822
2023/07/01 10:03:54.986, True, 1.328, 0.134432
2023/07/01 10:03:55.490, True, 0.993, 0.134661
2023/07/01 10:03:55.986, True, 1.011, 0.135805
2023/07/01 10:03:56.490, True, 0.995, 0.133898
2023/07/01 10:03:56.986, True, 1.011, 0.134737
2023/07/01 10:03:57.490, True, 0.995, 0.135119
2023/07/01 10:03:57.994, True, 0.995, 0.133745
2023/07/01 10:03:58.490, True, 1.011, 0.135348
2023/07/01 10:03:58.994, True, 0.995, 0.135653
2023/07/01 10:03:59.498, True, 0.995, 0.135424
2023/07/01 10:03:59.994, True, 1.011, 0.134813
2023/07/01 10:04:00.498, True, 0.995, 0.136034
2023/07/01 10:04:01.002, True, 0.995, 0.134661
2023/07/01 10:04:01.498, True, 1.011, 0.134737
2023/07/01 10:04:02.002, True, 0.995, 0.136110
2023/07/01 10:04:02.506, True, 0.995, 0.133745
2023/07/01 10:04:03.002, True, 1.011, 0.134051
2023/07/01 10:04:03.506, True, 0.994, 0.135119
2023/07/01 10:04:04.010, True, 1.326, 0.134356
2023/07/01 10:04:04.506, True, 1.011, 0.135500
2023/07/01 10:04:05.010, True, 0.664, 0.135500
2023/07/01 10:04:05.514, True, 0.993, 0.133288
2023/07/01 10:04:06.010, True, 1.011, 0.134432
2023/07/01 10:04:06.514, True, 1.326, 0.134356
2023/07/01 10:04:07.010, True, 1.011, 0.135653
2023/07/01 10:04:07.514, True, 0.995, 0.134585
2023/07/01 10:04:08.018, True, 0.995, 0.137789
2023/07/01 10:04:08.514, True, 1.013, 0.135348
2023/07/01 10:04:09.018, True, 0.993, 0.136797
2023/07/01 10:04:09.522, True, 0.995, 0.133669
2023/07/01 10:04:10.018, True, 1.011, 0.134813
2023/07/01 10:04:10.522, True, 0.995, 0.135195
2023/07/01 10:04:11.026, True, 0.995, 0.136110
2023/07/01 10:04:11.522, True, 1.011, 0.134127
2023/07/01 10:04:12.026, True, 0.663, 0.133059
2023/07/01 10:04:12.522, True, 1.011, 0.135348